Simultaneous Nadir Overpasses (SNOs) Predictions

Prediction of SNOs between AURA and NPP Satellite Orbit:

Table of predicted SNOs for the next 14.0 days since TLE Epoch: 8/4/2017
Index Date (AURA) Time (AURA) Lat,Lon (AURA) SZA (AURA ) Date (NPP) Time (NPP) Lat,Lon (NPP) SZA (NPP ) Distance(km) Time Diff (sec)
1 08/07/2017 11:24:44 79.34, -95.54 76.89 08/07/2017 11:24:38 79.35, -95.48 76.88 1.54 6
2 08/07/2017 12:14:06 -79.54, 73.46 103.41 08/07/2017 12:15:18 -79.54, 73.39 103.45 1.57 72
3 08/10/2017 02:51:50 -79.22,-148.10 102.21 08/10/2017 02:50:55 -79.23,-147.96 102.20 3.02 55
4 08/10/2017 03:41:11 79.40, 20.74 77.54 08/10/2017 03:41:34 79.40, 20.70 77.53 0.88 23
5 08/12/2017 19:08:17 -79.28, -31.85 101.53 08/12/2017 19:07:51 -79.28, -31.79 101.52 1.15 26
6 08/12/2017 19:57:38 79.46, 137.00 78.22 08/12/2017 19:58:30 79.45, 136.87 78.21 2.76 52
7 08/15/2017 10:35:58 77.58, -92.38 81.51 08/15/2017 10:34:44 77.70, -92.84 81.60 17.52 74
8 08/15/2017 11:24:44 -79.33, 84.38 100.82 08/15/2017 11:24:47 -79.33, 84.37 100.82 0.27 3
9 08/18/2017 02:51:48 79.21, 31.84 80.17 08/18/2017 02:51:02 79.21, 31.93 80.19 1.88 46




NCC Satellite Simultaneous Nadir Overpasses (SNOs) Prediction Service
